EW9288 Weather Reports


time (UTC)temp
C
wind
direction
speed
KPH
gust
KPH
rain 1hr
cm
rain 24hr
cm
rain mn
cm
humidity
%
barometer
mb
20260506103029 15 207 4.8 17.7 0.00 0.03 0.03 91 1009.4
20260506101529 16 207 8.0 19.3 0.00 0.03 0.03 88 1009.4
20260506100021 16 207 3.2 12.9 0.00 0.03 0.03 87 1009.1
20260506094520 16 207 4.8 9.7 0.03 0.03 0.03 88 1009.0
20260506093017 16 207 0.0 6.4 0.03 0.03 0.03 89 1008.7
20260506091518 16 207 0.0 9.7 0.03 0.03 0.03 88 1008.6
20260506090015 16 207 1.6 8.0 0.03 0.03 0.03 87 1008.5
20260506084513 17 207 4.8 9.7 0.00 0.00 0.00 86 1008.6
20260506083010 17 207 6.4 12.9 0.00 0.00 0.00 85 1008.5
20260506081506 18 207 8.0 16.1 0.00 0.00 0.00 83 1008.4
20260506073108 18 207 8.0 22.5 0.00 0.00 0.00 83 1008.4
20260506071554 19 207 8.0 16.1 0.00 0.00 0.00 83 1008.3
20260506061538 23 207 0.0 0.0 0.00 0.00 0.00 88 1008.0
20260506044538 23 207 0.0 0.0 0.00 0.00 0.00 89 1007.4
20260506043028 23 207 0.0 0.0 0.00 0.00 0.00 88 1007.3
20260506041527 23 207 0.0 0.0 0.00 0.00 0.00 88 1006.8
20260506040048 23 207 0.0 0.0 0.00 0.00 0.00 88 1007.0
20260506034527 23 207 0.0 0.0 0.00 0.00 0.00 87 1006.8
20260506033025 24 207 0.0 0.0 0.00 0.00 0.00 86 1006.3
20260506031626 24 207 0.0 0.0 0.00 0.00 0.00 85 1006.0
20260506030024 24 207 0.0 0.0 0.00 0.00 0.00 85 1005.6
20260506024526 24 207 0.0 0.0 0.00 0.00 0.00 84 1005.5
20260506023023 25 207 0.0 0.0 0.00 0.00 0.00 84 1005.3
20260506021522 25 207 0.0 0.0 0.00 0.00 0.00 83 1005.1
20260506020022 25 207 0.0 0.0 0.00 0.00 0.00 83 1005.0
20260506014522 25 207 0.0 0.0 0.00 0.00 0.00 81 1004.8
20260506013021 25 207 0.0 0.0 0.00 0.00 0.00 81 1005.0
20260506011520 26 207 0.0 0.0 0.00 0.00 0.00 80 1005.1
20260506010019 26 207 0.0 1.6 0.00 0.00 0.00 78 1004.7
20260506004524 26 207 0.0 1.6 0.00 0.00 0.00 77 1004.5
20260506003018 27 207 0.0 3.2 0.00 0.00 0.00 76 1004.6
20260506001517 27 207 0.0 4.8 0.00 0.00 0.00 76 1004.5
20260506000018 27 207 0.0 3.2 0.00 0.00 0.00 75 1004.4
20260505234516 27 207 0.0 6.4 0.00 0.00 0.00 74 1004.4
20260505233017 27 207 0.0 3.2 0.00 0.00 0.00 73 1004.3
20260505231518 28 207 0.0 4.8 0.00 0.00 0.00 73 1004.3
20260505230022 28 207 1.6 8.0 0.00 0.00 0.00 71 1004.2
20260505224512 28 207 0.0 4.8 0.00 0.00 0.00 71 1004.3
20260505223015 28 207 1.6 6.4 0.00 0.00 0.00 70 1004.1
20260505221511 28 207 0.0 9.7 0.00 0.00 0.00 70 1004.1
20260505220009 28 207 1.6 8.0 0.00 0.00 0.00 69 1004.2
20260505214509 28 207 1.6 6.4 0.00 0.00 0.00 70 1004.3
20260505213008 28 207 1.6 8.0 0.00 0.00 0.00 70 1004.3
20260505211506 28 207 0.0 8.0 0.00 0.00 0.00 70 1004.4
20260505210003 28 207 1.6 8.0 0.00 0.00 0.00 70 1004.8
20260505204605 28 207 0.0 6.4 0.00 0.00 0.00 72 1005.0
20260505203100 28 207 1.6 6.4 0.00 0.00 0.00 72 1005.2
20260505201600 28 206 1.6 8.0 0.00 0.00 0.00 71 1005.2
20260505200059 27 207 1.6 9.7 0.00 0.00 0.00 72 1005.1
20260505194608 27 207 1.6 8.0 0.00 0.00 0.00 71 1005.2
20260505193052 27 207 0.0 8.0 0.00 0.00 0.00 72 1005.4
20260505191550 27 207 3.2 9.7 0.00 0.00 0.00 73 1005.5
20260505190047 27 207 4.8 11.3 0.00 0.00 0.00 73 1005.6
20260505184546 26 207 3.2 12.9 0.00 0.00 0.00 74 1005.7
20260505183044 26 207 1.6 9.7 0.00 0.00 0.00 75 1005.6
20260505181546 26 207 3.2 9.7 0.00 0.00 0.00 76 1005.8
20260505180041 26 207 4.8 9.7 0.00 0.00 0.00 75 1006.0
20260505174541 26 207 1.6 9.7 0.00 0.00 0.00 77 1006.3
20260505173037 26 207 1.6 9.7 0.00 0.00 0.00 77 1006.2
20260505171536 25 207 3.2 9.7 0.00 0.00 0.00 77 1006.1
20260505170131 25 207 3.2 9.7 0.00 0.00 0.00 78 1006.1
20260505164529 25 207 4.8 9.7 0.00 0.00 0.00 79 1006.0
20260505163027 24 207 4.8 9.7 0.00 0.00 0.00 79 1006.4
20260505161525 24 207 3.2 8.0 0.00 0.00 0.00 80 1006.4
20260505153019 23 207 1.6 9.7 0.00 0.00 0.00 81 1006.3
20260505151519 23 207 3.2 9.7 0.00 0.00 0.00 82 1006.1
20260505124502 21 207 0.0 4.8 0.00 0.00 0.00 88 1005.6
20260505123001 21 207 0.0 4.8 0.00 0.00 0.00 88 1005.8
20260505121600 21 207 0.0 6.4 0.00 0.00 0.00 88 1005.8
20260505120121 21 207 1.6 6.4 0.00 0.00 0.00 88 1005.7
20260505114602 21 207 1.6 6.4 0.00 0.00 0.00 88 1005.7
20260505113106 21 207 1.6 6.4 0.00 0.00 0.00 88 1005.3
20260505111558 21 207 1.6 9.7 0.00 0.00 0.00 88 1005.4
20260505110116 21 207 0.0 8.0 0.00 0.00 0.00 88 1005.3